When you browse on this site, cookies collect data to enhance your experience and personalize the content and advertising you see.
Visit our Privacy Policy to learn more. By continuing to use the site, you agree to this use of cookies and data.
  • In Hungary
  • List of Countries
  • For 7 days
  • Water Temperature
  • Weather Map
  • News
  • Weather Widgets
  • user-avatar
    Login

    Hourly Weather Bonthe

    Today, 15 November, Friday

    Time Temperature Precipitation Wind Pressure Humidity
    00:00 +28°C° 0.5 mm 2 mps 757 mmHg 87%
    01:00 +27°C° 0.5 mm 2 mps 756 mmHg 87%
    02:00 +27°C° 0.5 mm 2 mps 756 mmHg 87%
    03:00 +27°C° 0.2 mm 2 mps 756 mmHg 88%
    04:00 +27°C° 0.2 mm 2 mps 756 mmHg 89%
    05:00 +27°C° 0.2 mm 2 mps 756 mmHg 89%
    06:00 +28°C° 0.4 mm 2 mps 756 mmHg 86%
    07:00 +28°C° 0.4 mm 2 mps 757 mmHg 83%
    08:00 +29°C° 0.4 mm 2 mps 757 mmHg 80%
    09:00 +31°C° 0.3 mm 1 mps 757 mmHg 73%
    10:00 +33°C° 0.3 mm 1 mps 757 mmHg 66%
    11:00 +34°C° 0.3 mm 1 mps 756 mmHg 59%
    12:00 +33°C° 1.8 mm 1 mps 756 mmHg 63%
    13:00 +32°C° 1.8 mm 2 mps 755 mmHg 67%
    14:00 +31°C° 1.8 mm 3 mps 755 mmHg 71%
    15:00 +31°C° 1.1 mm 3 mps 755 mmHg 75%
    16:00 +30°C° 1.1 mm 3 mps 755 mmHg 78%
    17:00 +29°C° 1.1 mm 2 mps 755 mmHg 82%
    18:00 +29°C° 0.1 mm 2 mps 756 mmHg 83%
    19:00 +28°C° 0.1 mm 2 mps 756 mmHg 84%
    20:00 +28°C° 0.1 mm 1 mps 757 mmHg 86%
    21:00 +28°C° 0.1 mm 1 mps 757 mmHg 86%
    22:00 +28°C° 0.1 mm 1 mps 757 mmHg 86%
    23:00 +28°C° 0.1 mm 1 mps 757 mmHg 86%

    Tomorrow, 16 November, Saturday

    Time Temperature Precipitation Wind Pressure Humidity
    00:00 +28°C° 0.2 mm 1 mps 756 mmHg 85%
    01:00 +28°C° 0.2 mm 1 mps 756 mmHg 85%
    02:00 +26°C° 0.2 mm 0 mps 756 mmHg 84%
    03:00 +27°C° 0.1 mm 1 mps 756 mmHg 85%
    04:00 +27°C° 0.1 mm 1 mps 756 mmHg 86%
    05:00 +27°C° 0.1 mm 1 mps 756 mmHg 86%
    06:00 +28°C° 0.4 mm 1 mps 756 mmHg 84%
    07:00 +28°C° 0.4 mm 1 mps 757 mmHg 82%
    08:00 +29°C° 0.4 mm 1 mps 757 mmHg 80%
    09:00 +30°C° 0 mm 1 mps 757 mmHg 73%
    10:00 +32°C° 0 mm 1 mps 757 mmHg 66%
    11:00 +33°C° 0 mm 1 mps 757 mmHg 59%
    12:00 +34°C° 0.3 mm 2 mps 756 mmHg 63%
    13:00 +33°C° 0.3 mm 3 mps 755 mmHg 66%
    14:00 +32°C° 0.3 mm 4 mps 755 mmHg 70%
    15:00 +30°C° 1.4 mm 4 mps 755 mmHg 75%
    16:00 +29°C° 1.4 mm 4 mps 755 mmHg 81%
    17:00 +28°C° 1.4 mm 4 mps 755 mmHg 86%
    18:00 +28°C° 1.4 mm 4 mps 756 mmHg 87%
    19:00 +28°C° 1.4 mm 4 mps 756 mmHg 88%
    20:00 +28°C° 1.4 mm 4 mps 757 mmHg 88%
    21:00 +27°C° 1 mm 4 mps 757 mmHg 88%
    22:00 +27°C° 1 mm 3 mps 757 mmHg 88%
    23:00 +27°C° 1 mm 3 mps 758 mmHg 87%

    Day after tomorrow, 17 November, Sunday

    Time Temperature Precipitation Wind Pressure Humidity
    00:00 +27°C° 3.1 mm 4 mps 757 mmHg 90%
    01:00 +26°C° 3.1 mm 4 mps 757 mmHg 92%
    02:00 +26°C° 3.1 mm 4 mps 756 mmHg 94%
    03:00 +25°C° 4.4 mm 4 mps 756 mmHg 94%
    04:00 +25°C° 4.4 mm 5 mps 756 mmHg 94%
    05:00 +25°C° 4.4 mm 5 mps 756 mmHg 94%
    06:00 +25°C° 0.5 mm 4 mps 757 mmHg 91%
    07:00 +26°C° 0.5 mm 3 mps 757 mmHg 88%
    08:00 +26°C° 0.5 mm 2 mps 757 mmHg 86%
    09:00 +27°C° 0 mm 2 mps 757 mmHg 83%
    10:00 +28°C° 0 mm 2 mps 757 mmHg 80%
    11:00 +28°C° 0 mm 2 mps 757 mmHg 78%
    12:00 +29°C° 0 mm 2 mps 756 mmHg 74%
    13:00 +30°C° 0 mm 1 mps 756 mmHg 71%
    14:00 +30°C° 0 mm 1 mps 755 mmHg 68%
    15:00 +30°C° 0 mm 1 mps 755 mmHg 71%
    16:00 +30°C° 0 mm 1 mps 755 mmHg 74%
    17:00 +27°C° 0 mm 0 mps 755 mmHg 77%
    18:00 +29°C° 0.3 mm 1 mps 756 mmHg 78%
    19:00 +28°C° 0.3 mm 1 mps 756 mmHg 80%
    20:00 +28°C° 0.3 mm 1 mps 757 mmHg 81%
    21:00 +28°C° 0.1 mm 1 mps 757 mmHg 82%
    22:00 +28°C° 0.1 mm 1 mps 757 mmHg 83%
    23:00 +27°C° 0.1 mm 1 mps 757 mmHg 84%

    18 November, Monday

    Time Temperature Precipitation Wind Pressure Humidity
    00:00 +27°C° 0 mm 1 mps 757 mmHg 84%
    01:00 +27°C° 0 mm 1 mps 756 mmHg 84%
    02:00 +27°C° 0 mm 1 mps 756 mmHg 85%
    03:00 +27°C° 0 mm 1 mps 756 mmHg 86%
    04:00 +27°C° 0 mm 1 mps 756 mmHg 87%
    05:00 +27°C° 0 mm 1 mps 756 mmHg 88%
    06:00 +28°C° 0 mm 1 mps 757 mmHg 84%
    07:00 +27°C° 0 mm 0 mps 757 mmHg 80%
    08:00 +28°C° 0 mm 0 mps 757 mmHg 76%
    09:00 +29°C° 0 mm 0 mps 757 mmHg 72%
    10:00 +32°C° 0 mm 1 mps 757 mmHg 67%
    11:00 +33°C° 0 mm 1 mps 757 mmHg 63%
    12:00 +34°C° 0 mm 2 mps 756 mmHg 65%
    13:00 +32°C° 0 mm 2 mps 755 mmHg 68%
    14:00 +31°C° 0 mm 3 mps 755 mmHg 71%
    15:00 +31°C° 0.5 mm 3 mps 755 mmHg 74%
    16:00 +30°C° 0.5 mm 3 mps 755 mmHg 77%
    17:00 +29°C° 0.5 mm 2 mps 756 mmHg 80%
    18:00 +29°C° 0.1 mm 2 mps 756 mmHg 82%
    19:00 +28°C° 0.1 mm 2 mps 757 mmHg 84%
    20:00 +28°C° 0.1 mm 2 mps 757 mmHg 86%
    21:00 +28°C° 0 mm 2 mps 757 mmHg 87%
    22:00 +28°C° 0 mm 2 mps 757 mmHg 87%
    23:00 +28°C° 0 mm 2 mps 757 mmHg 87%

    19 November, Tuesday

    Time Temperature Precipitation Wind Pressure Humidity
    00:00 +27°C° 0 mm 2 mps 757 mmHg 87%
    01:00 +27°C° 0 mm 2 mps 756 mmHg 88%
    02:00 +27°C° 0 mm 2 mps 756 mmHg 88%
    03:00 +27°C° 0 mm 2 mps 756 mmHg 89%
    04:00 +27°C° 0 mm 2 mps 756 mmHg 91%
    05:00 +27°C° 0 mm 2 mps 756 mmHg 92%
    06:00 +28°C° 0 mm 2 mps 756 mmHg 89%
    07:00 +29°C° 0 mm 1 mps 757 mmHg 85%
    08:00 +30°C° 0 mm 1 mps 757 mmHg 82%
    09:00 +31°C° 0 mm 1 mps 757 mmHg 75%
    10:00 +33°C° 0 mm 1 mps 757 mmHg 68%
    11:00 +34°C° 0 mm 1 mps 756 mmHg 61%
    12:00 +35°C° 0.1 mm 2 mps 756 mmHg 63%
    13:00 +34°C° 0.1 mm 2 mps 755 mmHg 64%
    14:00 +34°C° 0.1 mm 3 mps 755 mmHg 66%
    15:00 +33°C° 0.2 mm 3 mps 755 mmHg 71%
    16:00 +31°C° 0.2 mm 3 mps 755 mmHg 76%
    17:00 +30°C° 0.2 mm 3 mps 755 mmHg 81%
    18:00 +29°C° 0 mm 3 mps 755 mmHg 83%
    19:00 +29°C° 0 mm 2 mps 756 mmHg 85%
    20:00 +28°C° 0 mm 2 mps 756 mmHg 87%
    21:00 +28°C° 0.1 mm 2 mps 757 mmHg 87%
    22:00 +28°C° 0.1 mm 2 mps 757 mmHg 88%
    23:00 +28°C° 0.1 mm 2 mps 757 mmHg 88%

    20 November, Wednesday

    Time Temperature Precipitation Wind Pressure Humidity
    00:00 +28°C° 0 mm 2 mps 756 mmHg 88%
    01:00 +28°C° 0 mm 2 mps 756 mmHg 88%
    02:00 +27°C° 0 mm 1 mps 756 mmHg 89%
    03:00 +27°C° 0 mm 1 mps 756 mmHg 89%
    04:00 +27°C° 0 mm 1 mps 756 mmHg 89%
    05:00 +25°C° 0 mm 0 mps 756 mmHg 89%
    06:00 +26°C° 0 mm 0 mps 756 mmHg 84%
    07:00 +27°C° 0 mm 0 mps 757 mmHg 79%
    08:00 +29°C° 0 mm 0 mps 757 mmHg 75%
    09:00 +31°C° 0 mm 1 mps 757 mmHg 71%
    10:00 +32°C° 0 mm 1 mps 757 mmHg 68%
    11:00 +34°C° 0 mm 2 mps 757 mmHg 65%
    12:00 +32°C° 0 mm 2 mps 756 mmHg 66%
    13:00 +32°C° 0 mm 2 mps 756 mmHg 66%
    14:00 +32°C° 0 mm 2 mps 755 mmHg 67%
    15:00 +31°C° 0.3 mm 2 mps 755 mmHg 71%
    16:00 +30°C° 0.3 mm 2 mps 755 mmHg 75%
    17:00 +30°C° 0.3 mm 2 mps 756 mmHg 78%
    18:00 +29°C° 0.1 mm 2 mps 756 mmHg 80%
    19:00 +29°C° 0.1 mm 2 mps 756 mmHg 82%
    20:00 +28°C° 0.1 mm 1 mps 757 mmHg 84%
    21:00 +28°C° 0 mm 1 mps 757 mmHg 85%
    22:00 +28°C° 0 mm 2 mps 757 mmHg 85%
    23:00 +28°C° 0 mm 2 mps 757 mmHg 86%
    Show more